GW3580 Weather Reports


time (UTC)temp
C
wind
direction
speed
KPH
gust
KPH
rain 1hr
cm
rain 24hr
cm
rain mn
cm
humidity
%
barometer
mb
20260507161815 20 320 0.0 0.0 0.00 0.00 0.00 65 1017.3
20260507161311 20 271 4.8 6.4 0.00 0.00 0.00 65 1017.6
20260507160808 20 269 1.6 3.2 0.00 0.00 0.00 65 1017.4
20260507160304 20 285 3.2 3.2 0.00 0.00 0.00 65 1017.4
20260507155759 20 249 4.8 6.4 0.00 0.00 0.00 65 1017.4
20260507155256 19 280 0.0 1.6 0.00 0.00 0.00 67 1017.3
20260507154752 18 306 0.0 1.6 0.00 0.00 0.00 68 1017.4
20260507154250 18 6 0.0 0.0 0.00 0.00 0.00 67 1017.3
20260507153746 18 290 1.6 1.6 0.00 0.00 0.00 68 1017.5
20260507153243 18 308 1.6 1.6 0.00 0.00 0.00 69 1017.3
20260507152740 18 312 1.6 1.6 0.00 0.00 0.00 71 1017.3
20260507152236 17 280 1.6 1.6 0.00 0.00 0.00 72 1017.4
20260507151732 17 271 1.6 1.6 0.00 0.00 0.00 72 1017.5
20260507151228 17 339 1.6 1.6 0.00 0.00 0.00 71 1017.6
20260507150726 17 25 0.0 0.0 0.00 0.00 0.00 73 1017.4
20260507150222 17 25 0.0 0.0 0.00 0.00 0.00 74 1017.6
20260507145718 17 25 0.0 0.0 0.00 0.00 0.00 75 1017.3
20260507145215 16 27 0.0 0.0 0.00 0.00 0.00 75 1017.4
20260507144712 16 12 0.0 0.0 0.00 0.00 0.00 77 1017.4
20260507144210 16 12 0.0 0.0 0.00 0.00 0.00 79 1017.4
20260507143706 15 275 0.0 0.0 0.00 0.00 0.00 80 1017.4
20260507143203 15 283 1.6 1.6 0.00 0.00 0.00 80 1017.5
20260507142659 15 280 1.6 1.6 0.00 0.00 0.00 81 1017.7
20260507142155 15 279 0.0 0.0 0.00 0.00 0.00 82 1017.4
20260507141652 14 280 0.0 0.0 0.00 0.00 0.00 83 1017.3
20260507141149 14 281 1.6 1.6 0.00 0.00 0.00 83 1017.3
20260507140645 14 281 0.0 0.0 0.00 0.00 0.00 84 1017.3
20260507140143 14 283 0.0 1.6 0.00 0.00 0.00 84 1017.0
20260507135640 13 283 0.0 0.0 0.00 0.00 0.00 85 1016.9
20260507135137 13 283 0.0 0.0 0.00 0.00 0.00 86 1017.0
20260507134633 13 283 0.0 0.0 0.00 0.00 0.00 86 1017.2
20260507134130 13 275 1.6 1.6 0.00 0.00 0.00 86 1017.1
20260507133626 13 293 0.0 0.0 0.00 0.00 0.00 85 1016.8
20260507133123 13 292 0.0 0.0 0.00 0.00 0.00 85 1016.9
20260507132620 13 291 0.0 1.6 0.00 0.00 0.00 85 1017.2
20260507132116 13 2 0.0 0.0 0.00 0.00 0.00 85 1016.9
20260507131613 13 2 0.0 0.0 0.00 0.00 0.00 84 1016.9
20260507131111 13 2 0.0 0.0 0.00 0.00 0.00 84 1016.8
20260507130607 13 2 0.0 0.0 0.00 0.00 0.00 84 1016.7
20260507130106 13 2 0.0 0.0 0.00 0.00 0.00 84 1016.5
20260507125604 13 2 0.0 0.0 0.00 0.00 0.00 84 1016.7
20260507125101 13 2 0.0 0.0 0.00 0.00 0.00 84 1016.7
20260507124557 13 2 0.0 0.0 0.00 0.00 0.00 83 1016.7
20260507124055 13 40 0.0 0.0 0.00 0.00 0.00 83 1016.5
20260507123553 13 40 0.0 0.0 0.00 0.00 0.00 82 1016.7
20260507123050 13 40 0.0 0.0 0.00 0.00 0.00 82 1016.6
20260507122545 13 40 0.0 0.0 0.00 0.00 0.00 82 1016.7
20260507122041 13 40 0.0 0.0 0.00 0.00 0.00 82 1016.7
20260507121537 13 40 0.0 0.0 0.00 0.00 0.00 82 1016.5
20260507121033 13 40 0.0 0.0 0.00 0.00 0.00 82 1016.6
20260507120529 13 41 0.0 0.0 0.00 0.00 0.00 82 1016.5
20260507120026 13 41 0.0 0.0 0.00 0.00 0.00 82 1016.6
20260507115522 14 42 0.0 0.0 0.00 0.00 0.00 82 1016.4
20260507115018 14 48 0.0 0.0 0.00 0.00 0.00 82 1016.6
20260507114514 14 51 0.0 0.0 0.00 0.00 0.00 82 1016.5
20260507114012 14 51 0.0 0.0 0.00 0.00 0.00 82 1016.7
20260507113509 14 51 0.0 0.0 0.00 0.00 0.00 82 1016.6
20260507113006 14 51 0.0 0.0 0.00 0.00 0.00 83 1016.5
20260507112503 14 342 0.0 0.0 0.00 0.00 0.00 83 1016.8
20260507112000 14 336 0.0 0.0 0.00 0.00 0.00 83 1016.7
20260507111459 14 336 0.0 0.0 0.00 0.00 0.00 83 1016.6
20260507110953 15 336 0.0 0.0 0.00 0.00 0.00 83 1016.7
20260507110450 14 335 0.0 0.0 0.00 0.00 0.00 83 1016.7
20260507105946 14 334 0.0 0.0 0.00 0.00 0.00 83 1016.7
20260507105443 14 334 0.0 0.0 0.00 0.00 0.00 83 1016.6
20260507104940 14 334 0.0 0.0 0.00 0.00 0.00 83 1016.9
20260507104437 14 333 0.0 0.0 0.00 0.00 0.00 83 1016.6
20260507103933 14 333 0.0 0.0 0.00 0.00 0.00 82 1016.6
20260507103430 14 20 0.0 0.0 0.00 0.00 0.00 82 1016.6
20260507102926 14 21 0.0 0.0 0.00 0.00 0.00 81 1016.7
20260507102423 14 21 0.0 0.0 0.00 0.00 0.00 81 1016.7
20260507101919 14 21 0.0 0.0 0.00 0.00 0.00 80 1016.7
20260507101414 14 21 0.0 0.0 0.00 0.00 0.00 79 1016.8
20260507100911 15 21 0.0 0.0 0.00 0.00 0.00 79 1016.8
20260507100409 15 21 0.0 0.0 0.00 0.00 0.00 79 1016.8
20260507095907 15 21 0.0 0.0 0.00 0.00 0.00 79 1016.7
20260507095403 15 21 0.0 0.0 0.00 0.00 0.00 79 1016.7
20260507094901 15 16 0.0 0.0 0.00 0.00 0.00 78 1016.6
20260507094357 15 16 0.0 0.0 0.00 0.00 0.00 78 1016.7
20260507093854 15 16 0.0 0.0 0.00 0.00 0.00 78 1016.6
20260507093352 15 18 0.0 0.0 0.00 0.00 0.00 77 1016.8
20260507092850 15 18 0.0 0.0 0.00 0.00 0.00 77 1016.9
20260507092346 15 18 0.0 0.0 0.00 0.00 0.00 78 1016.8
20260507091843 16 23 1.6 1.6 0.00 0.00 0.00 78 1016.8
20260507091339 16 26 0.0 0.0 0.00 0.00 0.00 77 1017.0
20260507090835 16 352 0.0 0.0 0.00 0.00 0.00 75 1016.7
20260507090331 16 273 0.0 0.0 0.00 0.00 0.00 75 1016.9
20260507085828 16 273 0.0 0.0 0.00 0.00 0.00 75 1016.8
20260507085325 17 273 0.0 1.6 0.00 0.00 0.00 76 1017.0
20260507084823 17 278 1.6 3.2 0.00 0.00 0.00 76 1016.8
20260507084319 16 275 0.0 0.0 0.00 0.00 0.00 75 1016.9
20260507083816 16 269 0.0 0.0 0.00 0.00 0.00 75 1017.0
20260507083313 16 268 0.0 1.6 0.00 0.00 0.00 75 1017.1
20260507082809 16 281 0.0 0.0 0.00 0.00 0.00 76 1016.9
20260507082306 16 284 0.0 0.0 0.00 0.00 0.00 76 1017.0
20260507081802 16 284 0.0 0.0 0.00 0.00 0.00 75 1017.1
20260507081258 16 283 0.0 0.0 0.00 0.00 0.00 75 1017.1
20260507080755 16 283 0.0 0.0 0.00 0.00 0.00 74 1016.8
20260507080251 16 283 0.0 0.0 0.00 0.00 0.00 74 1017.1
20260507075746 16 280 0.0 0.0 0.00 0.00 0.00 75 1016.9
20260507075242 16 280 0.0 0.0 0.00 0.00 0.00 74 1017.0
20260507074739 17 280 0.0 0.0 0.00 0.00 0.00 73 1016.9
20260507074237 17 279 0.0 1.6 0.00 0.00 0.00 73 1016.9
20260507073733 17 276 1.6 1.6 0.00 0.00 0.00 73 1017.0
20260507073230 16 291 0.0 0.0 0.00 0.00 0.00 74 1017.0
20260507072728 17 291 0.0 0.0 0.00 0.00 0.00 75 1017.0
20260507072225 17 305 0.0 0.0 0.00 0.00 0.00 75 1017.1
20260507071723 17 305 0.0 0.0 0.00 0.00 0.00 74 1017.1
20260507071219 17 305 0.0 0.0 0.00 0.00 0.00 73 1017.0
20260507070716 17 307 0.0 0.0 0.00 0.00 0.00 73 1017.1
20260507070213 16 324 0.0 0.0 0.00 0.00 0.00 75 1017.0
20260507065709 16 24 0.0 0.0 0.00 0.00 0.00 75 1017.2
20260507065206 16 24 0.0 0.0 0.00 0.00 0.00 75 1017.1
20260507064704 17 24 0.0 0.0 0.00 0.00 0.00 74 1017.2
20260507064202 17 24 0.0 0.0 0.00 0.00 0.00 74 1017.1
20260507063659 17 24 0.0 0.0 0.00 0.00 0.00 73 1017.1
20260507063156 17 24 0.0 0.0 0.00 0.00 0.00 72 1017.1
20260507062653 17 24 0.0 0.0 0.00 0.00 0.00 71 1017.0
20260507062150 17 24 0.0 0.0 0.00 0.00 0.00 70 1017.0
20260507061648 17 24 0.0 0.0 0.00 0.00 0.00 69 1017.1
20260507061146 17 24 0.0 0.0 0.00 0.00 0.00 68 1017.0
20260507060644 17 60 0.0 0.0 0.00 0.00 0.00 68 1017.0
20260507060140 17 54 0.0 0.0 0.00 0.00 0.00 68 1017.1
20260507055635 17 57 0.0 0.0 0.00 0.00 0.00 67 1017.1
20260507055132 18 57 0.0 0.0 0.00 0.00 0.00 67 1017.0
20260507054628 18 55 0.0 0.0 0.00 0.00 0.00 67 1017.1
20260507054125 17 60 0.0 1.6 0.00 0.00 0.00 68 1016.9
20260507053623 17 15 0.0 0.0 0.00 0.00 0.00 68 1016.8
20260507053121 18 15 0.0 0.0 0.00 0.00 0.00 67 1016.8
20260507052619 18 15 0.0 0.0 0.00 0.00 0.00 66 1016.8
20260507052115 18 15 0.0 0.0 0.00 0.00 0.00 66 1016.8
20260507051613 18 15 0.0 0.0 0.00 0.00 0.00 66 1017.0
20260507051109 18 260 0.0 0.0 0.00 0.00 0.00 67 1017.0
20260507050606 18 255 0.0 0.0 0.00 0.00 0.00 68 1017.0
20260507045559 18 251 0.0 0.0 0.00 0.00 0.00 68 1016.9
20260507045056 19 251 0.0 0.0 0.00 0.00 0.00 67 1016.8
20260507044553 19 251 0.0 0.0 0.00 0.00 0.00 66 1016.9
20260507044050 19 251 0.0 0.0 0.00 0.00 0.00 65 1016.8
20260507043545 19 251 0.0 0.0 0.00 0.00 0.00 65 1016.7
20260507043043 19 251 0.0 0.0 0.00 0.00 0.00 65 1016.8
20260507042539 19 251 0.0 0.0 0.00 0.00 0.00 65 1016.5
20260507042035 20 251 0.0 0.0 0.00 0.00 0.00 66 1016.6
20260507041532 20 251 0.0 0.0 0.00 0.00 0.00 65 1016.6
20260507041029 20 250 0.0 0.0 0.00 0.00 0.00 65 1016.4
20260507040525 20 250 0.0 0.0 0.00 0.00 0.00 65 1016.6
20260507040021 20 250 0.0 0.0 0.00 0.00 0.00 65 1016.5
20260507035518 20 250 0.0 0.0 0.00 0.00 0.00 64 1016.5
20260507035014 20 250 0.0 0.0 0.00 0.00 0.00 64 1016.3
20260507034511 20 250 0.0 0.0 0.00 0.00 0.00 63 1016.2
20260507034009 20 250 0.0 0.0 0.00 0.00 0.00 62 1016.3
20260507033507 20 250 0.0 0.0 0.00 0.00 0.00 61 1016.2
20260507033004 20 250 0.0 0.0 0.00 0.00 0.00 60 1016.1
20260507032501 21 250 0.0 0.0 0.00 0.00 0.00 60 1016.1
20260507031956 21 250 0.0 0.0 0.00 0.00 0.00 59 1016.1
20260507031453 21 250 0.0 0.0 0.00 0.00 0.00 58 1015.9
20260507030950 21 250 0.0 0.0 0.00 0.00 0.00 58 1015.9
20260507030447 21 250 0.0 0.0 0.00 0.00 0.00 57 1016.0
20260507025944 22 250 0.0 0.0 0.00 0.00 0.00 55 1015.6
20260507025441 22 250 0.0 0.0 0.00 0.00 0.00 54 1015.9
20260507024939 22 250 0.0 0.0 0.00 0.00 0.00 53 1015.8
20260507024436 22 250 0.0 0.0 0.00 0.00 0.00 52 1016.0
20260507023932 23 249 3.2 3.2 0.00 0.00 0.00 52 1016.0
20260507023429 23 292 1.6 1.6 0.00 0.00 0.00 50 1015.9
20260507022926 23 14 0.0 0.0 0.00 0.00 0.00 48 1015.5
20260507022423 23 14 0.0 0.0 0.00 0.00 0.00 46 1015.5
20260507021919 23 14 0.0 0.0 0.00 0.00 0.00 46 1015.6
20260507021414 24 14 1.6 1.6 0.00 0.00 0.00 45 1015.7
20260507020912 24 295 0.0 0.0 0.00 0.00 0.00 43 1015.5
20260507020409 24 273 1.6 1.6 0.00 0.00 0.00 43 1015.7
20260507015906 24 283 1.6 3.2 0.00 0.00 0.00 44 1015.6
20260507015404 24 258 4.8 6.4 0.00 0.00 0.00 44 1015.8
20260507014900 24 260 6.4 8.0 0.00 0.00 0.00 43 1015.7
20260507014356 24 260 6.4 6.4 0.00 0.00 0.00 42 1015.6
20260507013853 25 257 3.2 3.2 0.00 0.00 0.00 42 1015.8
20260507013350 25 265 1.6 1.6 0.00 0.00 0.00 42 1015.7
20260507012848 25 222 3.2 3.2 0.00 0.00 0.00 42 1015.8
20260507012343 25 257 4.8 8.0 0.00 0.00 0.00 43 1015.6
20260507011841 25 233 3.2 3.2 0.00 0.00 0.00 42 1015.8
20260507011337 25 267 0.0 0.0 0.00 0.00 0.00 42 1015.7
20260507010832 25 227 3.2 6.4 0.00 0.00 0.00 41 1015.8
20260507010328 25 247 4.8 6.4 0.00 0.00 0.00 42 1015.8
20260507005825 25 275 4.8 6.4 0.00 0.00 0.00 41 1015.7
20260507005322 25 248 3.2 3.2 0.00 0.00 0.00 41 1015.7
20260507004819 25 291 0.0 0.0 0.00 0.00 0.00 41 1015.7
20260507004316 25 46 1.6 3.2 0.00 0.00 0.00 41 1015.5
20260507003813 25 281 8.0 9.7 0.00 0.00 0.00 41 1015.7
20260507003308 25 245 4.8 6.4 0.00 0.00 0.00 40 1015.7
20260507002803 25 25 3.2 6.4 0.00 0.00 0.00 41 1015.8
20260507002300 25 238 3.2 3.2 0.00 0.00 0.00 41 1015.8
20260507001757 26 334 0.0 1.6 0.00 0.00 0.00 40 1015.8
20260507001254 25 320 0.0 1.6 0.00 0.00 0.00 39 1015.7
20260507000750 25 244 3.2 3.2 0.00 0.00 0.00 41 1015.8
20260507000246 25 266 3.2 3.2 0.00 0.00 0.00 42 1015.8
20260506235743 25 254 8.0 11.3 0.00 0.00 0.00 41 1015.5
20260506235238 25 249 6.4 8.0 0.00 0.00 0.00 40 1015.8
20260506234736 25 273 3.2 3.2 0.00 0.00 0.00 41 1015.8
20260506234233 25 262 4.8 6.4 0.00 0.00 0.00 40 1015.8
20260506233730 25 346 1.6 1.6 0.00 0.00 0.00 40 1015.7
20260506233227 25 272 1.6 1.6 0.00 0.00 0.00 40 1015.8
20260506232724 25 286 9.7 11.3 0.00 0.00 0.00 39 1015.9
20260506232218 25 274 1.6 1.6 0.00 0.00 0.00 40 1015.9
20260506231716 25 357 3.2 3.2 0.00 0.00 0.00 39 1015.9
20260506231214 25 10 1.6 3.2 0.00 0.00 0.00 40 1016.0
20260506230710 25 57 3.2 3.2 0.00 0.00 0.00 39 1016.1
20260506230208 25 69 4.8 8.0 0.00 0.00 0.00 40 1015.9
20260506225704 25 23 3.2 3.2 0.00 0.00 0.00 41 1016.1
20260506225201 25 246 1.6 3.2 0.00 0.00 0.00 41 1016.4
20260506224657 25 263 3.2 3.2 0.00 0.00 0.00 40 1016.3
20260506224154 25 210 3.2 3.2 0.00 0.00 0.00 40 1016.4
20260506223650 25 16 1.6 1.6 0.00 0.00 0.00 41 1016.4
20260506223146 25 241 3.2 6.4 0.00 0.00 0.00 41 1016.6
20260506222643 25 251 1.6 1.6 0.00 0.00 0.00 43 1016.6
20260506222139 24 249 1.6 3.2 0.00 0.00 0.00 41 1016.7
20260506221637 24 264 6.4 8.0 0.00 0.00 0.00 41 1016.6
20260506221135 23 55 1.6 3.2 0.00 0.00 0.00 42 1016.8
20260506220632 23 280 0.0 1.6 0.00 0.00 0.00 42 1016.7
20260506220127 23 41 4.8 8.0 0.00 0.00 0.00 41 1016.9
20260506215624 23 220 3.2 3.2 0.00 0.00 0.00 42 1017.0
20260506215119 23 246 3.2 6.4 0.00 0.00 0.00 41 1017.1
20260506214616 24 278 1.6 1.6 0.00 0.00 0.00 42 1017.1
20260506214114 25 275 3.2 3.2 0.00 0.00 0.00 40 1017.1
20260506213612 25 269 1.6 1.6 0.00 0.00 0.00 42 1017.5
20260506213109 23 0 1.6 1.6 0.00 0.00 0.00 40 1017.2
20260506212606 23 254 6.4 9.7 0.00 0.00 0.00 41 1017.3
20260506212101 24 278 1.6 1.6 0.00 0.00 0.00 41 1017.4
20260506211557 24 318 0.0 1.6 0.00 0.00 0.00 40 1017.5
20260506211054 23 56 4.8 6.4 0.00 0.00 0.00 40 1017.4
20260506210550 23 302 3.2 3.2 0.00 0.00 0.00 41 1017.5
20260506210047 23 308 0.0 1.6 0.00 0.00 0.00 41 1017.6
20260506205544 24 135 0.0 1.6 0.00 0.00 0.00 40 1017.6
20260506205039 23 268 1.6 1.6 0.00 0.00 0.00 41 1017.7
20260506204537 23 23 3.2 3.2 0.00 0.00 0.00 40 1017.6
20260506204034 23 46 1.6 3.2 0.00 0.00 0.00 40 1017.6
20260506203532 23 42 1.6 1.6 0.00 0.00 0.00 40 1017.6
20260506203028 23 334 3.2 3.2 0.00 0.00 0.00 43 1018.0
20260506202526 22 316 1.6 1.6 0.00 0.00 0.00 43 1017.9
20260506202022 22 246 1.6 3.2 0.00 0.00 0.00 44 1017.9
20260506201520 23 269 6.4 8.0 0.00 0.00 0.00 41 1018.0
20260506201016 22 251 4.8 6.4 0.00 0.00 0.00 44 1018.2
20260506200512 22 246 3.2 3.2 0.00 0.00 0.00 47 1018.0
20260506200009 21 224 0.0 0.0 0.00 0.00 0.00 48 1018.1
20260506195507 22 261 4.8 6.4 0.00 0.00 0.00 47 1018.4
20260506195002 22 49 4.8 6.4 0.00 0.00 0.00 46 1018.3
20260506194500 22 21 3.2 3.2 0.00 0.00 0.00 46 1018.2
20260506193956 22 5 3.2 3.2 0.00 0.00 0.00 46 1018.6
20260506193454 22 290 1.6 1.6 0.00 0.00 0.00 47 1018.5
20260506192950 22 264 1.6 3.2 0.00 0.00 0.00 48 1018.7
20260506192448 22 281 3.2 6.4 0.00 0.00 0.00 45 1018.3
20260506191944 21 128 0.0 1.6 0.00 0.00 0.00 48 1018.7
20260506191440 21 280 8.0 9.7 0.00 0.00 0.00 49 1018.7
20260506190937 21 47 1.6 3.2 0.00 0.00 0.00 50 1018.8
20260506190434 20 230 3.2 3.2 0.00 0.00 0.00 51 1018.8
20260506185931 21 255 1.6 6.4 0.00 0.00 0.00 50 1018.7
20260506185428 20 239 6.4 8.0 0.00 0.00 0.00 52 1018.8
20260506184925 21 239 4.8 6.4 0.00 0.00 0.00 51 1019.0
20260506184422 21 278 4.8 6.4 0.00 0.00 0.00 52 1018.9
20260506183919 21 33 0.0 0.0 0.00 0.00 0.00 49 1018.8
20260506183414 20 275 3.2 3.2 0.00 0.00 0.00 51 1019.1
20260506182912 20 22 1.6 1.6 0.00 0.00 0.00 49 1019.1
20260506182409 20 248 1.6 1.6 0.00 0.00 0.00 53 1019.0
20260506181906 20 243 1.6 1.6 0.00 0.00 0.00 55 1019.1
20260506181404 20 276 3.2 6.4 0.00 0.00 0.00 56 1019.1
20260506180901 20 297 4.8 6.4 0.00 0.00 0.00 57 1018.9
20260506180357 20 310 3.2 3.2 0.00 0.00 0.00 55 1018.9
20260506175854 20 342 0.0 1.6 0.00 0.00 0.00 58 1019.1
20260506175350 18 261 1.6 3.2 0.00 0.00 0.00 59 1019.1
20260506174847 18 261 4.8 6.4 0.00 0.00 0.00 60 1019.2
20260506174345 18 228 1.6 3.2 0.00 0.00 0.00 60 1019.1
20260506173842 19 239 1.6 1.6 0.00 0.00 0.00 60 1019.3
20260506173339 18 63 1.6 1.6 0.00 0.00 0.00 61 1019.2
20260506172836 19 279 3.2 3.2 0.00 0.00 0.00 61 1019.0
20260506172333 18 2 0.0 1.6 0.00 0.00 0.00 61 1019.2
20260506171830 18 244 3.2 3.2 0.00 0.00 0.00 64 1019.2
20260506171327 17 274 3.2 3.2 0.00 0.00 0.00 67 1019.2
20260506170825 17 257 4.8 6.4 0.00 0.00 0.00 67 1019.2
20260506170320 17 321 3.2 3.2 0.00 0.00 0.00 67 1019.3
20260506165820 17 271 3.2 6.4 0.00 0.00 0.00 68 1019.3
20260506165317 17 26 0.0 1.6 0.00 0.00 0.00 68 1019.2
20260506164813 17 343 0.0 0.0 0.00 0.00 0.00 68 1019.2
20260506164310 17 266 1.6 1.6 0.00 0.00 0.00 68 1019.4
20260506163807 16 279 1.6 3.2 0.00 0.00 0.00 70 1019.4
20260506163302 16 0 0.0 0.0 0.00 0.00 0.00 71 1019.4
20260506162758 16 244 1.6 1.6 0.00 0.00 0.00 72 1019.3
20260506162256 16 258 1.6 1.6 0.00 0.00 0.00 71 1019.4